Regional Weather Roundup
Issued by NWS

Home | Current Version | Previous Version | Text Only | Print | Product List | Glossary Off
Versions: 1 2 3 4 5 6 7 8 9 10 11 12 13 14 15 16 17 18 19 20 21 22 23 24 25 26 27 28 29 30 31 32 33 34 35 36 37 38 39 40 41 42 43 44 45 46 47 48 49 50

000
ASUS43 KBIS 240902
RWRND

NORTH DAKOTA REGIONAL WEATHER ROUNDUP
NATIONAL WEATHER SERVICE BISMARCK ND
400 AM CDT SUN JUL 24 2016

NOTE: "FAIR" INDICATES FEW OR NO CLOUDS BELOW 12,000 FEET WITH NO
SIGNIFICANT WEATHER AND/OR OBSTRUCTIONS TO VISIBILITY.


NDZ001>003-009>011-017-241000-
NORTHWEST NORTH DAKOTA

CITY           SKY/WX    TMP DP  RH WIND       PRES   REMARKS
WILLISTON      CLEAR     60  53  77 W10       30.00R
MINOT          CLEAR     66  56  70 W12       29.91R
MINOT AFB      CLEAR     60  57  90 W10       29.90R
$$

NDZ018>021-031>035-040>046-241000-
SOUTHWEST NORTH DAKOTA

CITY           SKY/WX    TMP DP  RH WIND       PRES   REMARKS
BISMARCK       CLEAR     62  57  83 W6        29.96R
DICKINSON      CLEAR     53  49  86 W8        30.04R
GARRISON         N/A     60  58  92 NW9       29.94S
HETTINGER ARPT CLEAR     52  48  86 CALM      30.09R
$$

NDZ004>008-012>016-024-026-027-054-241000-
NORTHEAST NORTH DAKOTA

CITY           SKY/WX    TMP DP  RH WIND       PRES   REMARKS
GRAND FORKS    CLEAR     63  60  90 W8        29.76S
GRND FRKS AFB  CLEAR     64  60  87 W7        29.78S
DEVILS LAKE    CLEAR     64  60  87 NW17G23   29.84S
$$

NDZ022-023-025-028>030-036>039-047>053-241000-
SOUTHEAST NORTH DAKOTA

CITY           SKY/WX    TMP DP  RH WIND       PRES   REMARKS
FARGO          CLEAR     65  60  84 W12       29.81R
JAMESTOWN      CLEAR     63  59  87 W8        29.88S
$$





USA.gov is the U.S. government's official web portal to all federal, state and local government web resources and services.